JBU603 KJFK-CYVR

Flight info

Callsign JBU603
Flight time N/A
Altitude 34000
Route DCT GAYEL Q818 WOZEE DCT KENPA DCT RNAND DCT DIPLE DCT KP09M DCT KP12K DCT KP15I/N0463F360 DCT KP18G DCT KP21Y DCT KU21U DCT KU21Q DCT KU18M DCT MLP DCT GEG DCT METOW GRIZZ9
Aircraft A321/M-SDE3FGHIRWY/LB1

Departure

Time 2026-05-04 20:38
Airport John F. Kennedy International Airport (KJFK)

Arrival

Time N/A
Airport Vancouver International Airport (CYVR)
Time Latitude Longitude Altitude Speed Heading
2026-05-04 20:23 40.64526 -73.77290 20 ft 0 kts
2026-05-04 20:27 40.64518 -73.77290 20 ft 4 kts
2026-05-04 20:27 40.64494 -73.77290 22 ft 4 kts 13°
2026-05-04 20:28 40.64476 -73.77306 24 ft 4 kts 74°
2026-05-04 20:28 40.64473 -73.77334 23 ft 1 kts 89°
2026-05-04 20:28 40.64473 -73.77339 22 ft 0 kts 89°
2026-05-04 20:34 40.64473 -73.77335 23 ft 3 kts 89°
2026-05-04 20:34 40.64472 -73.77238 20 ft 13 kts 100°
2026-05-04 20:34 40.64438 -73.77128 20 ft 13 kts 106°
2026-05-04 20:34 40.64442 -73.77021 21 ft 8 kts 23°
2026-05-04 20:35 40.64514 -73.76982 20 ft 18 kts 28°
2026-05-04 20:35 40.64653 -73.76879 20 ft 27 kts 30°
2026-05-04 20:35 40.64782 -73.76775 21 ft 20 kts 32°
2026-05-04 20:35 40.64897 -73.76682 21 ft 20 kts 31°
2026-05-04 20:36 40.65015 -73.76589 21 ft 20 kts 31°
2026-05-04 20:36 40.65100 -73.76494 21 ft 12 kts 80°
2026-05-04 20:36 40.65074 -73.76402 23 ft 10 kts 123°
2026-05-04 20:36 40.64999 -73.76374 22 ft 15 kts 196°
2026-05-04 20:37 40.64882 -73.76462 21 ft 34 kts 212°
2026-05-04 20:37 40.64472 -73.76780 20 ft 99 kts 211°
2026-05-04 20:37 40.63726 -73.77363 23 ft 147 kts 210°
2026-05-04 20:37 40.62760 -73.78130 243 ft 169 kts 208°
2026-05-04 20:38 40.61764 -73.78927 1000 ft 162 kts 211°
2026-05-04 20:38 40.60807 -73.79592 1876 ft 150 kts 206°
2026-05-04 20:38 40.59860 -73.80131 2505 ft 147 kts 209°
2026-05-04 20:38 40.58962 -73.80773 3021 ft 150 kts 216°
2026-05-04 20:39 40.58043 -73.81582 3301 ft 168 kts 218°
2026-05-04 20:39 40.57017 -73.82504 3465 ft 189 kts 217°
2026-05-04 20:39 40.55877 -73.83501 3602 ft 205 kts 216°
2026-05-04 20:39 40.54624 -73.84080 4512 ft 188 kts 190°
2026-05-04 20:40 40.53235 -73.84083 4882 ft 210 kts 177°
2026-05-04 20:40 40.51783 -73.83337 5270 ft 246 kts 146°
2026-05-04 20:40 40.50497 -73.81617 5310 ft 275 kts 136°
2026-05-04 20:40 40.49296 -73.79623 5309 ft 284 kts 125°
2026-05-04 20:41 40.48391 -73.77288 5363 ft 292 kts 105°
2026-05-04 20:41 40.48320 -73.74637 6055 ft 296 kts 78°
2026-05-04 20:41 40.49130 -73.72161 6724 ft 296 kts 50°
2026-05-04 20:41 40.50561 -73.70220 7371 ft 296 kts 38°
2026-05-04 20:42 40.52199 -73.68590 8050 ft 295 kts 27°
2026-05-04 20:42 40.54025 -73.67452 8711 ft 294 kts 17°
2026-05-04 20:42 40.55924 -73.66472 9397 ft 295 kts 16°
2026-05-04 20:42 40.57764 -73.65540 10029 ft 298 kts 16°
2026-05-04 20:43 40.59702 -73.64591 10246 ft 316 kts 12°
2026-05-04 20:43 40.61920 -73.64296 10373 ft 325 kts 349°
2026-05-04 20:43 40.64102 -73.65142 10514 ft 335 kts 328°
2026-05-04 20:43 40.66063 -73.66852 10931 ft 340 kts 321°
2026-05-04 20:44 40.68010 -73.68638 11511 ft 343 kts 322°
2026-05-04 20:44 40.69978 -73.70432 12131 ft 345 kts 322°
2026-05-04 20:44 40.71965 -73.72237 12750 ft 348 kts 322°
2026-05-04 20:44 40.73966 -73.74058 13388 ft 350 kts 322°
2026-05-04 20:45 40.75980 -73.75896 13922 ft 353 kts 322°
2026-05-04 20:45 40.78007 -73.77744 14474 ft 355 kts 322°
2026-05-04 20:45 40.80049 -73.79607 15011 ft 358 kts 322°
2026-05-04 20:45 40.82105 -73.81490 15569 ft 360 kts 322°
2026-05-04 20:46 40.84172 -73.83387 16160 ft 363 kts 322°
2026-05-04 20:46 40.86246 -73.85294 16713 ft 365 kts 322°
2026-05-04 20:46 40.88337 -73.87212 17257 ft 367 kts 322°
2026-05-04 20:46 40.90451 -73.89145 17774 ft 370 kts 322°
2026-05-04 20:47 40.92548 -73.91068 17935 ft 371 kts 322°
2026-05-04 20:47 40.94665 -73.93009 17964 ft 370 kts 322°
2026-05-04 20:47 40.96785 -73.94955 17961 ft 370 kts 322°
2026-05-04 20:47 40.98897 -73.96902 17961 ft 370 kts 322°
2026-05-04 20:48 41.01006 -73.98851 17960 ft 370 kts 322°
2026-05-04 20:48 41.03120 -74.00804 17958 ft 370 kts 322°
2026-05-04 20:48 41.05234 -74.02763 17962 ft 371 kts 322°
2026-05-04 20:48 41.07343 -74.04716 17962 ft 371 kts 322°
2026-05-04 20:49 41.09460 -74.06671 17962 ft 371 kts 322°
2026-05-04 20:49 41.11579 -74.08630 17963 ft 371 kts 322°
2026-05-04 20:49 41.13695 -74.10590 18066 ft 374 kts 322°
2026-05-04 20:49 41.15831 -74.12569 18601 ft 375 kts 322°
2026-05-04 20:50 41.17983 -74.14563 19118 ft 377 kts 322°
2026-05-04 20:50 41.20141 -74.16564 19631 ft 378 kts 322°
2026-05-04 20:50 41.22298 -74.18565 20135 ft 380 kts 322°
2026-05-04 20:50 41.24477 -74.20589 20619 ft 382 kts 322°
2026-05-04 20:51 41.26649 -74.22612 21101 ft 383 kts 322°
2026-05-04 20:51 41.28837 -74.24654 21534 ft 385 kts 322°
2026-05-04 20:51 41.31036 -74.26704 21965 ft 386 kts 322°
2026-05-04 20:51 41.33241 -74.28763 22404 ft 388 kts 322°
2026-05-04 20:52 41.35428 -74.30806 22843 ft 390 kts 322°
2026-05-04 20:52 41.37654 -74.32888 23261 ft 391 kts 322°
2026-05-04 20:52 41.39770 -74.35158 23632 ft 391 kts 314°
2026-05-04 20:52 41.41547 -74.37902 23980 ft 391 kts 304°
2026-05-04 20:53 41.42968 -74.40990 24316 ft 392 kts 300°
2026-05-04 20:53 41.44330 -74.44154 24663 ft 394 kts 300°
2026-05-04 20:53 41.45704 -74.47328 25019 ft 395 kts 300°
2026-05-04 20:53 41.47083 -74.50512 25364 ft 397 kts 300°
2026-05-04 20:54 41.48418 -74.53601 25680 ft 398 kts 300°
2026-05-04 20:54 41.49843 -74.56908 26030 ft 400 kts 300°
2026-05-04 20:54 41.51216 -74.60094 26340 ft 401 kts 300°
2026-05-04 20:54 41.52614 -74.63327 26646 ft 403 kts 300°
2026-05-04 20:55 41.54014 -74.66568 26966 ft 404 kts 300°
2026-05-04 20:55 41.55401 -74.69788 27260 ft 405 kts 300°
2026-05-04 20:55 41.56819 -74.73097 27571 ft 407 kts 300°
2026-05-04 20:55 41.58226 -74.76390 27893 ft 409 kts 300°
2026-05-04 20:56 41.59166 -74.78587 28087 ft 410 kts 300°
2026-05-04 20:56 41.60588 -74.81898 28426 ft 411 kts 300°
2026-05-04 20:56 41.62011 -74.85214 28752 ft 412 kts 300°
2026-05-04 20:56 41.63435 -74.88548 29144 ft 412 kts 300°
2026-05-04 20:57 41.64847 -74.91851 29589 ft 410 kts 300°
2026-05-04 20:57 41.66265 -74.95175 30027 ft 408 kts 300°
2026-05-04 20:57 41.67664 -74.98467 30394 ft 407 kts 300°
2026-05-04 20:57 41.69060 -75.01759 30754 ft 406 kts 300°
2026-05-04 20:58 41.70450 -75.05040 31101 ft 405 kts 301°
2026-05-04 20:58 41.71842 -75.08320 31426 ft 404 kts 301°
2026-05-04 20:58 41.73232 -75.11591 31739 ft 404 kts 301°
2026-05-04 20:58 41.74623 -75.14861 32068 ft 403 kts 301°
2026-05-04 20:59 41.75992 -75.18086 32401 ft 402 kts 301°
2026-05-04 20:59 41.77370 -75.21342 32721 ft 402 kts 302°
2026-05-04 20:59 41.78750 -75.24604 33045 ft 401 kts 302°
2026-05-04 20:59 41.80117 -75.27850 33354 ft 400 kts 302°
2026-05-04 21:00 41.81476 -75.31079 33684 ft 399 kts 302°
2026-05-04 21:00 41.82845 -75.34337 33872 ft 399 kts 302°
2026-05-04 21:00 41.85558 -75.40801 33855 ft 397 kts 302°
2026-05-04 21:01 41.88272 -75.47257 33853 ft 398 kts 302°
2026-05-04 21:01 41.90966 -75.53701 33850 ft 398 kts 302°
2026-05-04 21:02 41.93665 -75.60186 33856 ft 398 kts 302°
2026-05-04 21:02 41.96370 -75.66668 33844 ft 398 kts 302°
2026-05-04 21:03 41.99075 -75.73160 33848 ft 398 kts 302°
2026-05-04 21:03 42.01763 -75.79661 33830 ft 400 kts 301°
2026-05-04 21:04 42.04511 -75.86305 33841 ft 412 kts 301°
2026-05-04 21:04 42.07338 -75.93129 33832 ft 421 kts 301°
2026-05-04 21:05 42.10172 -76.00019 33830 ft 428 kts 301°
2026-05-04 21:05 42.13039 -76.07010 33815 ft 413 kts 301°
2026-05-04 21:06 42.15734 -76.13658 33828 ft 401 kts 298°
2026-05-04 21:06 42.17977 -76.20555 33824 ft 401 kts 296°
2026-05-04 21:07 42.20186 -76.27436 33812 ft 399 kts 296°
2026-05-04 21:07 42.22377 -76.34289 33806 ft 398 kts 296°
2026-05-04 21:08 42.24570 -76.41142 33790 ft 398 kts 296°
2026-05-04 21:08 42.26767 -76.48025 33786 ft 398 kts 296°
2026-05-04 21:09 42.28942 -76.54866 33791 ft 399 kts 295°
2026-05-04 21:09 42.31124 -76.61766 33793 ft 399 kts 295°
2026-05-04 21:10 42.33307 -76.68668 33797 ft 399 kts 295°
2026-05-04 21:10 42.35486 -76.75575 33806 ft 399 kts 295°
2026-05-04 21:11 42.37659 -76.82490 33809 ft 399 kts 295°
2026-05-04 21:11 42.39830 -76.89386 33788 ft 399 kts 295°
2026-05-04 21:12 42.42003 -76.96321 33781 ft 400 kts 295°
2026-05-04 21:12 42.44153 -77.03247 33780 ft 400 kts 295°
2026-05-04 21:13 42.46305 -77.10169 33781 ft 401 kts 295°
2026-05-04 21:13 42.48473 -77.17152 33783 ft 400 kts 295°
2026-05-04 21:14 42.50625 -77.24100 33776 ft 400 kts 294°
2026-05-04 21:14 42.52775 -77.31062 33798 ft 400 kts 294°
2026-05-04 21:15 42.54916 -77.38015 33790 ft 400 kts 294°
2026-05-04 21:15 42.57054 -77.44978 33778 ft 399 kts 294°
2026-05-04 21:16 42.59183 -77.51916 33767 ft 399 kts 294°
2026-05-04 21:16 42.61315 -77.58893 33756 ft 399 kts 294°
2026-05-04 21:17 42.63417 -77.65809 33754 ft 398 kts 293°
2026-05-04 21:17 42.65532 -77.72779 33754 ft 398 kts 293°
2026-05-04 21:18 42.67588 -77.79779 33755 ft 399 kts 292°
2026-05-04 21:18 42.69530 -77.86803 33795 ft 399 kts 291°
2026-05-04 21:19 42.71469 -77.93867 33792 ft 399 kts 292°
2026-05-04 21:19 42.73406 -78.00863 33779 ft 399 kts 291°
2026-05-04 21:20 42.75369 -78.07923 33786 ft 399 kts 291°
2026-05-04 21:20 42.77324 -78.14981 33782 ft 399 kts 291°
2026-05-04 21:21 42.79272 -78.22060 33782 ft 399 kts 291°
2026-05-04 21:21 42.81225 -78.29166 33784 ft 399 kts 291°
2026-05-04 21:22 42.83157 -78.36213 33779 ft 399 kts 291°
2026-05-04 21:22 42.85088 -78.43294 33793 ft 399 kts 291°
2026-05-04 21:23 42.87018 -78.50388 33790 ft 398 kts 291°
2026-05-04 21:23 42.88939 -78.57458 33785 ft 397 kts 291°
2026-05-04 21:24 42.90854 -78.64527 33751 ft 397 kts 291°
2026-05-04 21:24 42.92779 -78.71607 33746 ft 397 kts 293°
2026-05-04 21:25 42.95595 -78.77991 33744 ft 397 kts 305°
2026-05-04 21:25 42.98894 -78.84062 33734 ft 397 kts 305°
2026-05-04 21:26 43.02157 -78.90094 33731 ft 397 kts 305°
2026-05-04 21:26 43.05432 -78.96177 33725 ft 397 kts 305°
2026-05-04 21:27 43.08698 -79.02265 33720 ft 397 kts 305°
2026-05-04 21:27 43.11953 -79.08358 33720 ft 396 kts 304°
2026-05-04 21:28 43.15183 -79.14422 33715 ft 396 kts 304°
2026-05-04 21:28 43.18445 -79.20523 33714 ft 396 kts 304°
2026-05-04 21:29 43.21693 -79.26608 33715 ft 396 kts 304°
2026-05-04 21:29 43.24933 -79.32702 33716 ft 396 kts 304°
2026-05-04 21:30 43.28182 -79.38818 33715 ft 395 kts 304°
2026-05-04 21:30 43.31391 -79.44888 33718 ft 395 kts 304°
2026-05-04 21:31 43.36169 -79.53935 33725 ft 395 kts 304°
2026-05-04 21:32 43.39435 -79.60132 33714 ft 395 kts 304°
2026-05-04 21:32 43.42646 -79.66248 33709 ft 394 kts 304°
2026-05-04 21:33 43.45860 -79.72378 33711 ft 394 kts 303°
2026-05-04 21:33 43.49045 -79.78473 33703 ft 394 kts 303°
2026-05-04 21:34 43.52245 -79.84600 33681 ft 393 kts 303°
2026-05-04 21:34 43.55440 -79.90734 33682 ft 393 kts 303°
2026-05-04 21:35 43.58633 -79.96858 33678 ft 393 kts 303°
2026-05-04 21:35 43.61820 -80.02987 33695 ft 392 kts 303°
2026-05-04 21:36 43.64950 -80.09043 33678 ft 391 kts 303°
2026-05-04 21:36 43.68094 -80.15129 33674 ft 391 kts 303°
2026-05-04 21:37 43.71252 -80.21242 33673 ft 391 kts 303°
2026-05-04 21:37 43.74403 -80.27370 33667 ft 390 kts 303°
2026-05-04 21:38 43.77550 -80.33511 33680 ft 390 kts 303°
2026-05-04 21:38 43.80674 -80.39611 33665 ft 390 kts 303°
2026-05-04 21:39 43.83834 -80.45790 33680 ft 390 kts 302°
2026-05-04 21:39 43.86946 -80.51881 33671 ft 390 kts 302°
2026-05-04 21:40 43.90072 -80.58008 33682 ft 389 kts 302°
2026-05-04 21:40 43.93197 -80.64155 33666 ft 389 kts 302°
2026-05-04 21:41 43.95780 -80.69250 33666 ft 388 kts 302°
2026-05-04 21:41 43.99382 -80.76382 33655 ft 387 kts 302°
2026-05-04 21:42 44.02480 -80.82504 33651 ft 387 kts 302°
2026-05-04 21:42 44.05058 -80.87618 33649 ft 387 kts 302°
2026-05-04 21:43 44.08117 -80.93692 33667 ft 386 kts 301°
2026-05-04 21:43 44.11188 -80.99812 33649 ft 385 kts 301°
2026-05-04 21:44 44.14260 -81.05943 33638 ft 384 kts 301°
2026-05-04 21:44 44.17319 -81.12062 33635 ft 384 kts 301°
2026-05-04 21:45 44.20369 -81.18170 33626 ft 384 kts 301°
2026-05-04 21:45 44.23401 -81.24260 33623 ft 383 kts 301°
2026-05-04 21:46 44.26412 -81.30315 33620 ft 383 kts 301°
2026-05-04 21:46 44.29447 -81.36431 33640 ft 382 kts 300°
2026-05-04 21:47 44.32460 -81.42524 33626 ft 382 kts 300°
2026-05-04 21:47 44.35473 -81.48633 33619 ft 381 kts 300°
2026-05-04 21:48 44.38487 -81.54756 33606 ft 381 kts 300°
2026-05-04 21:48 44.41487 -81.60852 33604 ft 381 kts 300°
2026-05-04 21:49 44.44487 -81.66975 33612 ft 381 kts 300°
2026-05-04 21:49 44.47461 -81.73059 33604 ft 381 kts 300°
2026-05-04 21:50 44.50453 -81.79177 33600 ft 380 kts 300°
2026-05-04 21:50 44.53438 -81.85289 33589 ft 380 kts 300°
2026-05-04 21:51 44.56383 -81.91350 33583 ft 379 kts 300°
2026-05-04 21:51 44.59356 -81.97471 33570 ft 379 kts 300°
2026-05-04 21:52 44.62320 -82.03593 33571 ft 379 kts 300°
2026-05-04 21:52 44.65281 -82.09715 33560 ft 379 kts 300°
2026-05-04 21:53 44.68236 -82.15837 33549 ft 378 kts 300°
2026-05-04 21:53 44.71184 -82.21965 33555 ft 378 kts 300°
2026-05-04 21:54 44.74125 -82.28103 33576 ft 378 kts 299°
2026-05-04 21:54 44.77069 -82.34248 33565 ft 378 kts 299°
2026-05-04 21:55 44.79972 -82.40357 33559 ft 376 kts 297°
2026-05-04 21:55 44.82603 -82.46701 33556 ft 374 kts 294°
2026-05-04 21:56 44.85100 -82.53152 33534 ft 374 kts 294°
2026-05-04 21:56 44.87592 -82.59545 33531 ft 374 kts 295°
2026-05-04 21:57 44.90140 -82.65958 33526 ft 374 kts 295°
2026-05-04 21:57 44.92701 -82.72363 33517 ft 375 kts 295°
2026-05-04 21:58 44.95252 -82.78768 33512 ft 375 kts 295°
2026-05-04 21:58 44.97781 -82.85165 33539 ft 375 kts 294°
2026-05-04 21:59 45.00322 -82.91600 33519 ft 375 kts 294°
2026-05-04 21:59 45.02854 -82.98009 33508 ft 374 kts 294°
2026-05-04 22:00 45.05388 -83.04442 33527 ft 374 kts 294°
2026-05-04 22:00 45.07895 -83.10836 33503 ft 374 kts 294°
2026-05-04 22:01 45.10408 -83.17263 33497 ft 374 kts 294°
2026-05-04 22:01 45.12926 -83.23713 33492 ft 374 kts 294°
2026-05-04 22:02 45.15437 -83.30155 33487 ft 374 kts 294°
2026-05-04 22:02 45.17945 -83.36608 33488 ft 373 kts 294°
2026-05-04 22:03 45.20456 -83.43081 33518 ft 374 kts 294°
2026-05-04 22:03 45.22947 -83.49518 33493 ft 369 kts 293°
2026-05-04 22:04 45.25397 -83.55866 33485 ft 369 kts 293°
2026-05-04 22:04 45.27850 -83.62252 33465 ft 369 kts 293°
2026-05-04 22:05 45.30256 -83.68689 33455 ft 366 kts 289°
2026-05-04 22:05 45.32268 -83.75287 33447 ft 366 kts 289°
2026-05-04 22:06 45.34291 -83.81925 33455 ft 366 kts 289°
2026-05-04 22:06 45.36311 -83.88565 33455 ft 366 kts 289°
2026-05-04 22:07 45.38327 -83.95204 33458 ft 366 kts 289°
2026-05-04 22:07 45.40343 -84.01856 33465 ft 366 kts 289°
2026-05-04 22:08 45.42347 -84.08476 33472 ft 365 kts 289°
2026-05-04 22:08 45.44347 -84.15133 33489 ft 364 kts 288°
2026-05-04 22:09 45.46328 -84.21724 33489 ft 363 kts 288°
2026-05-04 22:09 45.48308 -84.28343 33490 ft 363 kts 288°
2026-05-04 22:10 45.50287 -84.34964 33487 ft 363 kts 288°
2026-05-04 22:10 45.52268 -84.41607 33460 ft 363 kts 288°
2026-05-04 22:11 45.54243 -84.48253 33463 ft 364 kts 288°
2026-05-04 22:11 45.56200 -84.54865 33479 ft 364 kts 287°
2026-05-04 22:12 45.58156 -84.61517 33478 ft 363 kts 287°
2026-05-04 22:12 45.60109 -84.68151 33483 ft 362 kts 287°
2026-05-04 22:13 45.62065 -84.74782 33482 ft 362 kts 287°
2026-05-04 22:13 45.64004 -84.81395 33480 ft 362 kts 287°
2026-05-04 22:14 45.65942 -84.88034 33479 ft 361 kts 287°
2026-05-04 22:14 45.67870 -84.94634 33492 ft 358 kts 287°
2026-05-04 22:15 45.69770 -85.01162 33484 ft 357 kts 286°
2026-05-04 22:15 45.71674 -85.07728 33483 ft 357 kts 286°
2026-05-04 22:16 45.73569 -85.14280 33482 ft 356 kts 286°
2026-05-04 22:16 45.75452 -85.20825 33481 ft 356 kts 286°
2026-05-04 22:17 45.77338 -85.27380 33481 ft 356 kts 286°
2026-05-04 22:17 45.79199 -85.33951 33473 ft 356 kts 286°
2026-05-04 22:18 45.81036 -85.40511 33475 ft 357 kts 286°
2026-05-04 22:18 45.82885 -85.47134 33478 ft 357 kts 286°
2026-05-04 22:19 45.84730 -85.53725 33473 ft 357 kts 286°
2026-05-04 22:19 45.86567 -85.60309 33476 ft 357 kts 286°
2026-05-04 22:20 45.88410 -85.66972 33478 ft 357 kts 285°
2026-05-04 22:20 45.90229 -85.73549 33509 ft 357 kts 285°
2026-05-04 22:21 45.92060 -85.80176 33501 ft 357 kts 285°
2026-05-04 22:21 45.93889 -85.86806 33489 ft 357 kts 285°
2026-05-04 22:22 45.95720 -85.93440 33483 ft 357 kts 285°
2026-05-04 22:22 45.97537 -86.00069 33476 ft 357 kts 285°
2026-05-04 22:23 45.99341 -86.06683 33492 ft 357 kts 285°
2026-05-04 22:23 46.01153 -86.13326 33485 ft 357 kts 285°
2026-05-04 22:24 46.02964 -86.19985 33479 ft 357 kts 285°
2026-05-04 22:24 46.04766 -86.26607 33491 ft 357 kts 285°
2026-05-04 22:25 46.06574 -86.33265 33492 ft 357 kts 285°
2026-05-04 22:25 46.08358 -86.39901 33489 ft 357 kts 285°
2026-05-04 22:26 46.10145 -86.46561 33492 ft 357 kts 285°
2026-05-04 22:26 46.11939 -86.53265 33534 ft 357 kts 285°
2026-05-04 22:27 46.13720 -86.59926 33491 ft 357 kts 285°
2026-05-04 22:27 46.15499 -86.66586 33485 ft 358 kts 285°
2026-05-04 22:28 46.17282 -86.73280 33485 ft 358 kts 285°
2026-05-04 22:28 46.19051 -86.79995 33484 ft 358 kts 285°
2026-05-04 22:29 46.20533 -86.85589 33503 ft 358 kts 285°
2026-05-04 22:29 46.22302 -86.92307 33510 ft 357 kts 285°
2026-05-04 22:30 46.24048 -86.98964 33500 ft 356 kts 285°
2026-05-04 22:30 46.25803 -87.05641 33501 ft 356 kts 285°
2026-05-04 22:31 46.27554 -87.12335 33497 ft 355 kts 285°
2026-05-04 22:31 46.29284 -87.18987 33469 ft 355 kts 285°
2026-05-04 22:32 46.31019 -87.25675 33464 ft 355 kts 285°
2026-05-04 22:32 46.32740 -87.32316 33461 ft 354 kts 285°
2026-05-04 22:33 46.34472 -87.38998 33464 ft 356 kts 285°
2026-05-04 22:33 46.36203 -87.45723 33450 ft 356 kts 284°
2026-05-04 22:34 46.37932 -87.52454 33450 ft 357 kts 284°
2026-05-04 22:34 46.39662 -87.59210 33453 ft 358 kts 284°
2026-05-04 22:35 46.41381 -87.65928 33473 ft 358 kts 285°
2026-05-04 22:35 46.43108 -87.72709 33475 ft 359 kts 284°
2026-05-04 22:36 46.44819 -87.79451 33476 ft 359 kts 284°
2026-05-04 22:36 46.46542 -87.86253 33480 ft 359 kts 284°
2026-05-04 22:37 46.48269 -87.93062 33495 ft 359 kts 284°
2026-05-04 22:37 46.49971 -87.99849 33525 ft 359 kts 284°
2026-05-04 22:38 46.51719 -88.06659 33507 ft 361 kts 285°
2026-05-04 22:38 46.53505 -88.13473 33503 ft 361 kts 285°
2026-05-04 22:39 46.55285 -88.20321 33504 ft 362 kts 285°
2026-05-04 22:39 46.57052 -88.27170 33502 ft 366 kts 285°
2026-05-04 22:40 46.58845 -88.34114 33489 ft 368 kts 285°
2026-05-04 22:40 46.60633 -88.41074 33518 ft 369 kts 285°
2026-05-04 22:41 46.62426 -88.48082 33510 ft 369 kts 285°
2026-05-04 22:41 46.64218 -88.55092 33515 ft 369 kts 285°
2026-05-04 22:42 46.66000 -88.62065 33514 ft 370 kts 285°
2026-05-04 22:42 46.67785 -88.69088 33515 ft 370 kts 285°
2026-05-04 22:43 46.69549 -88.76068 33531 ft 370 kts 285°
2026-05-04 22:43 46.71320 -88.83116 33544 ft 370 kts 285°
2026-05-04 22:44 46.73086 -88.90160 33547 ft 370 kts 285°
2026-05-04 22:44 46.74852 -88.97210 33546 ft 370 kts 285°
2026-05-04 22:45 46.76626 -89.04279 33552 ft 370 kts 285°
2026-05-04 22:45 46.79244 -89.14791 33551 ft 370 kts 285°
2026-05-04 22:46 46.80998 -89.21861 33551 ft 370 kts 285°
2026-05-04 22:46 46.82747 -89.28928 33555 ft 370 kts 285°
2026-05-04 22:47 46.84493 -89.36003 33564 ft 370 kts 285°
2026-05-04 22:47 46.86222 -89.43069 33565 ft 370 kts 284°